[[{"header":{"parameterUnit":"m.s-1","parameterCategory":1,"la1":30.2991,"la2":30.254,"lo1":-89.0895,"lo2":-89.0444,"dy":0.0017,"dx":0.0017,"nx":28,"ny":28,"refTime":"2025-03-05T09:00:00:Z","depth":0,"parameterNumber":2,"parameterNumberName":"U-component_of_WINDS"},"data":[0,0,0,0,0,0,0,0,0,0,0,0,0,0,0,0,0,0,0,0,0,0,0,0,0,0,0,0,0,0,0,0,0,0,0,0,0,0,0,0,0,0,0,0,0,0,0,0,0,0,0,0,0,0,0,0,0,0,0.9713,0.9714,0,0.978,0.9781,0.9781,0.9737,0.9735,0.9733,0.9731,0.9806,0.981,0.9813,0,0,0,0,0,0,0,0,0,0,0,0,0,0.9554,0.9557,0.9713,0.9714,0.9715,0.978,0.9781,0.9782,0.9738,0.9735,0.9733,0.973,0.9805,0.9809,0.9814,0,0,0,0,0,0,0,0,0,0,0,0,0,0.9622,0.9558,0.9713,0.9701,0.97,0.978,0.9781,0.9782,0.9738,0.9735,0.9732,0.9729,0.9803,0.9809,0.9814,0.9912,0,0,0.9832,0.9835,0,0,0,0,0,0,0,0,0.9618,0.9628,0.9702,0.9702,0.9701,0.9747,0.9752,0.9826,0.9739,0.9724,0.9731,0.9728,0.9789,0.9796,0.9815,0.9915,0.9918,0.9833,0.9836,0.9839,0.984,0,0,0,0,0,0,0,0.9613,0.9625,0.974,0.9703,0.9703,0.9694,0.97,0.9765,0.9773,0.9725,0.9722,0.973,0.9789,0.981,0.9817,0.9919,0.9833,0.9838,0.9841,0.9844,1.0103,1.0106,0,0,0,0,0,0,0.9609,0.9621,0.9738,0.9742,0.9651,0.9699,0.9706,0.9736,0.9772,0.9775,0.9733,0.9728,0.9801,0.981,0.9819,0.9935,0.9839,0.9844,0.9848,1.0099,1.0103,1.0107,0,0,0,0,0,0,0.9606,0.962,0.9735,0.9681,0.9694,0.9705,0.9738,0.9738,0.976,0.9778,0.978,0.9753,0.9799,0.9811,0.9889,0.9937,0.9847,0.9852,1.0095,1.0101,1.0105,1.0169,0,0,0,0,0,0,0.9601,0.9619,0.9654,0.9682,0.9698,0.9802,0.9741,0.9742,0.9769,0.9763,0.9797,0.98,0.9798,0.988,0.9894,0.9944,0.9857,1.0091,1.0098,1.0104,1.0162,1.0175,1.0187,0,0,0,0,0,0.9596,0.9671,0.9656,0.9671,0.9742,0.9804,0.9814,0.9808,0.9773,0.981,0.9822,0.9799,0.993,0.9888,0.9904,0.9956,1.0088,1.0096,1.0103,1.0157,1.0173,1.0186,0,0,0,0,0,0,0.9651,0.9674,0.9658,0.9744,0.9772,0.9797,0.9843,0.9825,0.9865,0.9859,0.9852,0.986,0.9941,0.9956,0.991,1.0052,1.0004,1.0015,1.0039,1.0054,1.0066,1.0061,0.9862,0,0,0,0,0,0.9673,0.972,0.9738,0.9813,0.9827,0.9833,0.986,0.9853,0.9883,0.9895,0.9912,0.9944,0.9992,1.0024,1.0069,1.0164,1.0172,1.0208,1.022,1.023,1.024,1.0292,1.0308,1.0132,1.0132,1.0132,0,0,0.972,0.9738,0.9768,0.9824,0.9845,0.9895,0.9843,0.9899,0.9937,0.9904,0.9978,0.9992,1.0027,1.0113,1.0152,1.0129,1.029,1.0239,1.0247,1.0252,1.0301,1.0318,1.0333,1.0137,1.0136,1.0136,0,0,0.983,0.9848,0.9912,0.9933,0.9965,0.9968,0.9984,1.0011,1.0018,1.0092,1.0068,1.0114,1.0197,1.0223,1.0247,1.0367,1.0348,1.0382,1.0445,1.0496,1.051,1.0522,1.0566,1.0581,1.0392,1.0392,1.0392,0,0.9884,0.9957,0.9947,1.0004,1.003,1.0001,1.0066,1.0088,1.0135,1.0154,1.0126,1.0229,1.0251,1.0343,1.0372,1.0393,1.0411,1.0378,1.0508,1.0521,1.0532,1.0573,1.0589,1.0396,1.0396,1.0395,1.0395,0,1.0023,1.0074,1.0122,1.0164,1.0196,1.0257,1.0258,1.0291,1.0282,1.0288,1.0364,1.0389,1.0438,1.046,1.0452,1.0552,1.0536,1.0509,1.046,1.0553,1.0591,1.0607,1.0402,1.04,1.0399,1.0398,0,0,1.017,1.0206,1.0224,1.0243,1.0276,1.0316,1.0377,1.0423,1.0452,1.0485,1.0536,1.0607,1.0582,1.0609,1.0604,1.0648,1.0742,1.0616,1.0616,1.0639,1.0854,1.0875,1.0893,1.0729,1.0732,1.0735,1.0851,0,1.0282,1.0385,1.0378,1.0476,1.0524,1.0497,1.0549,1.0576,1.0584,1.0628,1.0637,1.0687,1.065,1.0666,1.0709,1.0722,1.0786,1.0713,1.0779,1.0781,1.0771,1.0913,1.0935,1.1044,1.0866,1.0869,1.0871,0,1.0427,1.0462,1.0564,1.059,1.061,1.0657,1.0699,1.074,1.0771,1.0774,1.0804,1.0792,1.0855,1.0804,1.0891,1.0842,1.0868,1.0879,1.0883,1.0889,1.0832,1.0924,1.1079,1.1095,1.0895,1.0893,1.0891,0,1.0525,1.0598,1.0669,1.0686,1.0718,1.0752,1.0767,1.0794,1.0822,1.086,1.0879,1.0924,1.095,1.0986,1.0987,1.0949,1.1075,1.1024,1.1081,1.1081,1.1109,1.1107,1.127,1.1125,1.1125,1.1125,1.1125,0,1.0651,1.0715,1.0713,1.0756,1.0827,1.0819,1.0891,1.0902,1.0927,1.0974,1.0954,1.0998,1.0996,1.1042,1.1043,1.1116,1.1127,1.1133,1.1132,1.1135,1.1134,1.1152,1.1145,1.1129,1.1128,1.1127,1.1127,0,1.0772,1.0773,1.0848,1.0872,1.0879,1.093,1.0951,1.0993,1.0999,1.1058,1.1072,1.1082,1.1135,1.1139,1.1201,1.1202,1.129,1.1281,1.1279,1.1277,1.1334,1.1328,1.1515,1.1539,1.1378,1.138,1.1381,0,1.0853,1.09,1.0928,1.0957,1.0973,1.102,1.1049,1.1044,1.1074,1.1113,1.1151,1.1201,1.1241,1.1327,1.1341,1.1389,1.1381,1.1443,1.1389,1.1389,1.1383,1.138,1.1385,1.1454,1.1456,1.1457,1.1459,0,1.0996,1.0994,1.1034,1.1076,1.111,1.1143,1.1173,1.1198,1.1197,1.1233,1.1285,1.1316,1.1379,1.143,1.1476,1.1493,1.1477,1.1476,1.1491,1.1494,1.1491,1.1494,1.1308,1.1472,1.147,1.1469,1.1469,1.1468,1.1099,1.114,1.1166,1.1213,1.1234,1.1263,1.1304,1.1314,1.1357,1.1406,1.1401,1.146,1.149,1.155,1.1571,1.1618,1.1597,1.162,1.1626,1.1631,1.1637,1.1483,1.1626,1.1626,1.1626,1.1625,1.1625,0,1.1241,1.1256,1.1299,1.1341,1.1378,1.1356,1.1389,1.1422,1.1473,1.1502,1.1541,1.1602,1.1651,1.1669,1.1717,1.1751,1.1745,1.1764,1.1762,1.1767,1.1653,1.1634,1.1769,1.1769,1.1769,1.1769,1.1769,1.1769,1.1319,1.1388,1.139,1.147,1.1485,1.154,1.1561,1.1588,1.1611,1.1679,1.1719,1.1729,1.1754,1.1804,1.1848,1.1853,1.1872,1.1894,1.1895,1.1789,1.1775,1.1761,1.1743,1.1898,1.1899,1.2005,1.2006,1.2007]},{"header":{"parameterUnit":"m.s-1","parameterCategory":1,"la1":30.2991,"la2":30.254,"lo1":-89.0895,"lo2":-89.0444,"dy":0.0017,"dx":0.0017,"nx":28,"ny":28,"refTime":"2025-03-05T09:00:00:Z","depth":0,"parameterNumber":3,"parameterNumberName":"V-component_of_WINDS"},"data":[0,0,0,0,0,0,0,0,0,0,0,0,0,0,0,0,0,0,0,0,0,0,0,0,0,0,0,0,0,0,0,0,0,0,0,0,0,0,0,0,0,0,0,0,0,0,0,0,0,0,0,0,0,0,0,0,0,0,1.3574,1.3573,0,1.3546,1.3546,1.3545,1.3477,1.3476,1.3474,1.3473,1.3445,1.3445,1.3446,0,0,0,0,0,0,0,0,0,0,0,0,0,1.3567,1.3567,1.3574,1.3573,1.3573,1.3546,1.3546,1.3545,1.3478,1.3476,1.3474,1.3472,1.3445,1.3445,1.3446,0,0,0,0,0,0,0,0,0,0,0,0,0,1.3558,1.3567,1.3574,1.3536,1.3532,1.3546,1.3546,1.3545,1.3478,1.3476,1.3474,1.3472,1.3444,1.3445,1.3446,1.3494,0,0,1.3449,1.3449,0,0,0,0,0,0,0,0,1.3558,1.3558,1.3542,1.3539,1.3535,1.3513,1.3533,1.3528,1.3478,1.3499,1.3473,1.3471,1.3469,1.3468,1.3467,1.3493,1.3492,1.3449,1.3449,1.345,1.345,0,0,0,0,0,0,0,1.3559,1.3559,1.3563,1.3542,1.3537,1.352,1.3516,1.3532,1.3496,1.3497,1.3492,1.3489,1.3467,1.3467,1.3466,1.3492,1.3449,1.3449,1.345,1.345,1.3553,1.3555,0,0,0,0,0,0,1.3565,1.356,1.3564,1.3562,1.3541,1.3522,1.3518,1.3522,1.3496,1.349,1.3491,1.3486,1.3466,1.3465,1.3465,1.3518,1.345,1.345,1.3451,1.3551,1.3554,1.3556,0,0,0,0,0,0,1.3565,1.3566,1.3565,1.3559,1.3558,1.3524,1.353,1.3523,1.3522,1.3492,1.3485,1.3498,1.3465,1.3464,1.3487,1.3516,1.3451,1.3452,1.3548,1.3552,1.3555,1.3626,0,0,0,0,0,0,1.3565,1.3567,1.3585,1.356,1.3559,1.3588,1.3532,1.3524,1.3524,1.3517,1.3496,1.349,1.3463,1.3486,1.3488,1.3516,1.3452,1.3546,1.355,1.3554,1.3621,1.3631,1.364,0,0,0,0,0,1.3565,1.3607,1.3586,1.3587,1.3581,1.359,1.3589,1.3556,1.3527,1.3545,1.3525,1.3491,1.3513,1.3489,1.3491,1.352,1.3544,1.3549,1.3553,1.3616,1.3629,1.364,0,0,0,0,0,0,1.3636,1.3603,1.358,1.3614,1.3605,1.3578,1.36,1.3571,1.357,1.3564,1.3523,1.3519,1.3547,1.3536,1.351,1.3564,1.3523,1.3528,1.357,1.3582,1.3592,1.3593,1.3453,0,0,0,0,0,1.3655,1.3666,1.3636,1.367,1.3666,1.3634,1.3637,1.3612,1.3601,1.3597,1.3579,1.3569,1.3573,1.3577,1.358,1.3619,1.3613,1.364,1.365,1.3658,1.3662,1.368,1.3691,1.3572,1.3572,1.3572,0,0,1.3696,1.3679,1.3688,1.3683,1.3673,1.3684,1.3631,1.3645,1.3653,1.3599,1.3619,1.3606,1.3592,1.3623,1.3636,1.3615,1.3694,1.3664,1.3671,1.3671,1.3686,1.3698,1.3708,1.3576,1.3575,1.3575,0,0,1.3775,1.3764,1.3789,1.378,1.3766,1.3744,1.375,1.3727,1.3716,1.3736,1.3695,1.3703,1.3713,1.3704,1.3701,1.3775,1.3744,1.3778,1.3828,1.3845,1.3855,1.3863,1.3887,1.3897,1.3783,1.3783,1.3783,0,1.3827,1.3842,1.3806,1.3822,1.3821,1.3773,1.3797,1.3791,1.3778,1.3778,1.3754,1.3763,1.3751,1.3778,1.3796,1.3796,1.38,1.3779,1.3856,1.3864,1.3871,1.3894,1.3904,1.3787,1.3786,1.3786,1.3786,0,1.3905,1.3916,1.3939,1.3927,1.3928,1.3949,1.3916,1.3921,1.3896,1.3877,1.3897,1.388,1.3878,1.3883,1.3859,1.3906,1.3893,1.3864,1.3821,1.3887,1.3908,1.3916,1.3793,1.3791,1.379,1.3789,0,0,1.4027,1.3995,1.4004,1.3997,1.3977,1.3984,1.4003,1.4,1.4004,1.3997,1.401,1.4018,1.399,1.3987,1.3962,1.3978,1.4035,1.3946,1.3945,1.3962,1.4084,1.4105,1.4116,1.4015,1.4017,1.4018,1.4084,0,1.41,1.4128,1.4097,1.4132,1.414,1.4094,1.411,1.4099,1.4081,1.4085,1.4066,1.4071,1.4035,1.4032,1.4046,1.4026,1.4059,1.4021,1.4025,1.4026,1.4028,1.4127,1.4149,1.4213,1.4092,1.4094,1.4095,0,1.4188,1.4184,1.422,1.4196,1.4199,1.4213,1.4207,1.4212,1.4198,1.4184,1.418,1.415,1.4164,1.4124,1.4144,1.4118,1.4118,1.4108,1.411,1.4108,1.4063,1.4125,1.4233,1.4241,1.4108,1.4107,1.4106,0,1.4271,1.4275,1.4296,1.4292,1.4266,1.4276,1.4266,1.425,1.425,1.4245,1.4244,1.4241,1.4239,1.4237,1.4206,1.418,1.4228,1.4186,1.4216,1.4216,1.4227,1.4226,1.4333,1.423,1.423,1.423,1.423,0,1.4354,1.4377,1.4333,1.4346,1.437,1.4333,1.4358,1.4343,1.4329,1.4337,1.4298,1.4307,1.4266,1.4271,1.4247,1.4265,1.4265,1.4253,1.4246,1.4256,1.4257,1.4254,1.4248,1.4232,1.4232,1.4231,1.4231,0,1.445,1.4422,1.4441,1.4414,1.4408,1.4427,1.4403,1.4414,1.4393,1.4404,1.4405,1.4373,1.4375,1.4345,1.4342,1.4326,1.4354,1.4341,1.4359,1.4354,1.4384,1.4381,1.4492,1.4504,1.4395,1.4396,1.4397,0,1.4504,1.4521,1.4495,1.4498,1.4489,1.4495,1.4494,1.4458,1.4459,1.4444,1.4456,1.4455,1.4453,1.4459,1.4435,1.4432,1.4417,1.4456,1.4416,1.4425,1.4415,1.4414,1.4414,1.4464,1.4465,1.4466,1.4467,0,1.4603,1.4587,1.4588,1.4583,1.4583,1.4578,1.457,1.4575,1.4536,1.4538,1.4541,1.4539,1.4535,1.4535,1.4527,1.4515,1.4484,1.448,1.4486,1.4495,1.4504,1.4498,1.4379,1.4477,1.4476,1.4476,1.4475,1.4475,1.4678,1.4689,1.4673,1.4674,1.4665,1.4658,1.4666,1.4646,1.4647,1.4641,1.462,1.4626,1.461,1.4596,1.4588,1.4591,1.4571,1.4581,1.4583,1.4586,1.459,1.4505,1.4589,1.4589,1.4589,1.4588,1.4588,0,1.4772,1.4759,1.4761,1.475,1.4751,1.4723,1.4712,1.4715,1.472,1.4708,1.4706,1.4708,1.4707,1.4683,1.4678,1.4685,1.4671,1.4685,1.4683,1.4681,1.4609,1.4603,1.4697,1.4697,1.4697,1.4697,1.4697,1.4697,1.4821,1.4839,1.4821,1.4834,1.482,1.4825,1.4821,1.4814,1.4804,1.4808,1.4807,1.4791,1.4774,1.4768,1.4765,1.4758,1.4757,1.4776,1.4764,1.4697,1.4686,1.4676,1.467,1.4777,1.4777,1.4835,1.4836,1.4836]}]]